Location: ?????????
(44.2517°N, 135.2292°E)
Time: 15:36:05
(UTC+00:00)

ARIANE 6 FM1 Upper Stage - Pass Details

Date: 16 January 2026
Orbit: 522 x 609 km, 62.0° (Epoch: 11 February)

Event Time Altitude Azimuth Distance (km) Brightness Sun altitude
Exits shadow 19:39:58 17° 139° (SE) 1,377 5.0 -30.1°
Drops below altitude 10° 19:41:00 10° 140° (SE) 1,783 5.7 -29.9°
Sets 19:43:12 0° 141° (SE) 2,683 6.7 -29.5°
